Location: Unnamed
(47.6264°N, 122.3366°W)
Time: 07:48:18
(UTC-07:00)

X-37B - Pass Details

Date: 26 June 2021
Orbit: 383 x 392 km, 45.0° (Epoch: 01 July)

Event Time Altitude Azimuth Distance (km) Brightness Sun altitude
Rises 23:02:34 0° 261° (W) 2,256 4.7 -13.3°
Reaches altitude 10° 23:04:39 10° 256° (WSW) 1,402 3.6 -13.5°
Maximum altitude 23:07:44 53° 179° (S) 477 0.7 -13.7°
Enters shadow 23:09:31 22° 109° (ESE) 895 2.0 -13.9°
